Waupaca, WI

9:06 PM CDT on August 16, 2017 (GMT -0500)
Waupaca Municipal

Weather History for KPCZ - November, 2012

Change the Weather History Date:

Thursday, November 22, 2012

  Actual Average Record
Temperature  
Mean Temperature 50 °F -  
Max Temperature 64 °F 39 °F 64 °F (1990)
Min Temperature 37 °F 24 °F 5 °F (1964)
Degree Days  
Heating Degree Days 14    
Moisture  
Dew Point 39 °F    
Average Humidity 65    
Maximum Humidity 87    
Minimum Humidity 40    
Precipitation  
Precipitation 0.00 in - - ()
Sea Level Pressure  
Sea Level Pressure 29.74 in    
Wind  
Wind Speed 11 mph (SSW)    
Max Wind Speed 29 mph    
Max Gust Speed 38 mph    
Visibility 10 miles    
Events      
Averages and records for this station are not official NWS values.
T = Trace of Precipitation, MM = Missing Value Source: NWS Daily Summary

Daily Weather History Graph

Daily Weather History Graph

Search for Another Location

Airport or City:

Trip Planner

Search our weather history database for the weather conditions in past years. The results will help you decide how hot, cold, wet, or windy it might be!

Date:

Astronomy

Nov. 22, 2012 Rise Set
Actual Time 7:01 AM CST 4:22 PM CST
Civil Twilight 6:29 AM CST 4:54 PM CST
Nautical Twilight 5:54 AM CST 5:30 PM CST
Astronomical Twilight 5:19 AM CST 6:04 PM CST
Moon 1:18 PM CST (11/22) 1:09 AM CST (11/22)
Length of Visible Light 10h 25m
Length of Day
9h 21m
Waxing Gibbous, 71% of the Moon is Illuminated
Nov 22
Waxing Gibbous
Nov 28
Full
Dec 6
Last Quarter
Dec 13
New
Dec 19
First Quarter

Hourly Weather History & Observations

Time (CST) Temp. Windchill Dew Point Humidity Pressure Visibility Wind Dir Wind Speed Gust Speed Precip Events Conditions
12:15 AM 44.6 °F 40.2 °F 41.0 °F 87% 29.93 in 7.0 mi South 8.1 mph - N/A   Clear
12:35 AM 44.6 °F 40.7 °F 41.0 °F 87% 29.92 in 7.0 mi South 6.9 mph - N/A   Clear
1:15 AM 44.6 °F 40.2 °F 41.0 °F 87% 29.91 in 7.0 mi South 8.1 mph - N/A   Clear
1:35 AM 44.6 °F 40.2 °F 41.0 °F 87% 29.91 in 7.0 mi South 8.1 mph - N/A   Clear
1:55 AM 44.6 °F 41.4 °F 41.0 °F 87% 29.91 in 7.0 mi South 5.8 mph - N/A   Clear
2:15 AM 44.6 °F 40.7 °F 41.0 °F 87% 29.90 in 7.0 mi South 6.9 mph - N/A   Clear
2:35 AM 44.6 °F 40.2 °F 41.0 °F 87% 29.89 in 7.0 mi South 8.1 mph - N/A   Clear
2:55 AM 46.4 °F 42.4 °F 41.0 °F 81% 29.88 in 7.0 mi South 8.1 mph - N/A   Clear
3:15 AM 44.6 °F 40.2 °F 41.0 °F 87% 29.87 in 7.0 mi South 8.1 mph - N/A   Clear
3:35 AM 44.6 °F 40.2 °F 41.0 °F 87% 29.86 in 7.0 mi South 8.1 mph - N/A   Clear
3:55 AM 44.6 °F 39.7 °F 41.0 °F 87% 29.85 in 7.0 mi South 9.2 mph - N/A   Clear
4:15 AM 46.4 °F 41.5 °F 41.0 °F 81% 29.84 in 10.0 mi South 10.4 mph - N/A   Clear
4:55 AM 46.4 °F 41.1 °F 41.0 °F 81% 29.82 in 10.0 mi South 11.5 mph - N/A   Clear
5:15 AM 46.4 °F 41.1 °F 41.0 °F 81% 29.81 in 10.0 mi South 11.5 mph - N/A   Clear
5:35 AM 46.4 °F 41.5 °F 39.2 °F 76% 29.81 in 10.0 mi South 10.4 mph - N/A   Clear
5:55 AM 46.4 °F 41.5 °F 39.2 °F 76% 29.80 in 10.0 mi South 10.4 mph - N/A   Clear
6:15 AM 46.4 °F 41.9 °F 39.2 °F 76% 29.80 in 10.0 mi South 9.2 mph 16.1 mph N/A   Clear
6:35 AM 46.4 °F 41.9 °F 39.2 °F 76% 29.79 in 10.0 mi South 9.2 mph - N/A   Clear
6:55 AM 46.4 °F 41.9 °F 37.4 °F 71% 29.79 in 10.0 mi South 9.2 mph - N/A   Clear
7:15 AM 46.4 °F 41.5 °F 37.4 °F 71% 29.79 in 10.0 mi South 10.4 mph - N/A   Clear
7:35 AM 48.2 °F - 39.2 °F 71% 29.78 in 10.0 mi South 10.4 mph - N/A   Clear
7:55 AM 50.0 °F - 39.2 °F 66% 29.78 in 10.0 mi South 12.7 mph - N/A   Clear
8:15 AM 50.0 °F - 39.2 °F 66% 29.78 in 10.0 mi South 11.5 mph 16.1 mph N/A   Clear
8:35 AM 51.8 °F - 39.2 °F 62% 29.77 in 10.0 mi South 11.5 mph - N/A   Clear
8:55 AM 53.6 °F - 39.2 °F 58% 29.76 in 10.0 mi South 11.5 mph - N/A   Clear
9:15 AM 55.4 °F - 39.2 °F 54% 29.76 in 10.0 mi South 11.5 mph 20.7 mph N/A   Clear
9:55 AM 57.2 °F - 37.4 °F 48% 29.75 in 10.0 mi South 15.0 mph 20.7 mph N/A   Clear
10:15 AM 59.0 °F - 37.4 °F 45% 29.74 in 10.0 mi South 17.3 mph 21.9 mph N/A   Clear
10:35 AM 60.8 °F - 37.4 °F 42% 29.73 in 10.0 mi SSW 15.0 mph 24.2 mph N/A   Clear
10:55 AM 60.8 °F - 39.2 °F 45% 29.72 in 10.0 mi South 12.7 mph 23.0 mph N/A   Clear
11:15 AM 62.6 °F - 39.2 °F 42% 29.71 in 10.0 mi SSW 17.3 mph 23.0 mph N/A   Clear
11:35 AM 64.4 °F - 39.2 °F 40% 29.69 in 10.0 mi SSW 15.0 mph 24.2 mph N/A   Clear
11:55 AM 64.4 °F - 39.2 °F 40% 29.68 in 10.0 mi SSW 16.1 mph 21.9 mph N/A   Clear
12:15 PM 64.4 °F - 39.2 °F 40% 29.67 in 10.0 mi SSW 17.3 mph 27.6 mph N/A   Clear
12:35 PM 64.4 °F - 39.2 °F 40% 29.66 in 10.0 mi South 16.1 mph 21.9 mph N/A   Clear
12:55 PM 64.4 °F - 41.0 °F 42% 29.65 in 10.0 mi SSW 16.1 mph - N/A   Clear
1:15 PM 64.4 °F - 41.0 °F 42% 29.64 in 10.0 mi SSW 15.0 mph 21.9 mph N/A   Clear
1:35 PM 64.4 °F - 41.0 °F 42% 29.64 in 10.0 mi SSW 17.3 mph 23.0 mph N/A   Clear
1:55 PM 64.4 °F - 41.0 °F 42% 29.63 in 10.0 mi South 12.7 mph 20.7 mph N/A   Clear
3:35 PM 60.8 °F - 42.8 °F 52% 29.63 in 10.0 mi SSW 10.4 mph - N/A   Clear
3:55 PM 59.0 °F - 42.8 °F 55% 29.64 in 10.0 mi SSW 9.2 mph - N/A   Clear
4:15 PM 59.0 °F - 42.8 °F 55% 29.63 in 10.0 mi SSW 10.4 mph - N/A   Clear
4:35 PM 59.0 °F - 42.8 °F 55% 29.64 in 10.0 mi SSW 9.2 mph - N/A   Clear
4:55 PM 57.2 °F - 42.8 °F 59% 29.63 in 10.0 mi SSW 8.1 mph - N/A   Clear
5:15 PM 55.4 °F - 42.8 °F 63% 29.63 in 10.0 mi SSW 5.8 mph - N/A   Clear
5:35 PM 55.4 °F - 42.8 °F 63% 29.63 in 10.0 mi SSW 5.8 mph - N/A   Clear
5:55 PM 55.4 °F - 42.8 °F 63% 29.63 in 10.0 mi SSW 5.8 mph - N/A   Scattered Clouds
6:15 PM 55.4 °F - 42.8 °F 63% 29.62 in 10.0 mi SSW 4.6 mph - N/A   Overcast
6:35 PM 53.6 °F - 42.8 °F 67% 29.62 in 10.0 mi SSW 5.8 mph - N/A   Mostly Cloudy
6:55 PM 53.6 °F - 42.8 °F 67% 29.62 in 10.0 mi SSW 4.6 mph - N/A   Mostly Cloudy
7:55 PM 55.4 °F - 44.6 °F 67% 29.63 in 10.0 mi WSW 11.5 mph 17.3 mph N/A   Mostly Cloudy
8:15 PM 55.4 °F - 41.0 °F 58% 29.64 in 10.0 mi West 20.7 mph 27.6 mph N/A   Mostly Cloudy
8:35 PM 53.6 °F - 37.4 °F 54% 29.66 in 10.0 mi West 17.3 mph 31.1 mph N/A   Overcast
8:55 PM 48.2 °F - 35.6 °F 62% 29.68 in 10.0 mi West 23.0 mph 33.4 mph N/A   Scattered Clouds
9:15 PM 44.6 °F 36.1 °F 33.8 °F 66% 29.70 in 10.0 mi West 21.9 mph 34.5 mph N/A   Mostly Cloudy
9:35 PM 42.8 °F 32.9 °F 32.0 °F 66% 29.71 in 10.0 mi West 26.5 mph 38.0 mph N/A   Overcast
9:55 PM 42.8 °F 34.8 °F 32.0 °F 66% 29.71 in 10.0 mi West 17.3 mph 36.8 mph N/A   Mostly Cloudy
10:15 PM 41.0 °F 32.8 °F 32.0 °F 70% 29.72 in 10.0 mi West 16.1 mph 27.6 mph N/A   Scattered Clouds
10:35 PM 41.0 °F 30.0 °F 32.0 °F 70% 29.73 in 10.0 mi West 28.8 mph 35.7 mph N/A   Mostly Cloudy
10:55 PM 37.4 °F 26.4 °F 30.2 °F 75% 29.74 in 10.0 mi West 23.0 mph 35.7 mph N/A   Overcast
11:15 PM 37.4 °F 27.8 °F 30.2 °F 75% 29.74 in 10.0 mi West 17.3 mph 27.6 mph N/A   Overcast
11:35 PM 37.4 °F 28.9 °F 30.2 °F 75% 29.74 in 10.0 mi West 13.8 mph 21.9 mph N/A   Overcast
11:55 PM 37.4 °F 26.9 °F 28.4 °F 70% 29.75 in 10.0 mi West 20.7 mph 32.2 mph N/A   Overcast